logo tempoitalia

Diretta Meteo Cayenne-Rochambeau, Guiana Franceselunedì 31 agosto ore 02:00

Mappa
Sereno 26 °C Coperto 24 Ore: T.min 22 T.max 33
Ponente Nord Km/h 0 Punto di rugiada: 25 °C Umidità: 94% Visibilità: 10 Km
Il sole sorge alle: 06:23 Il sole tramonta alle: 18:36
31 Agosto 2026 02:00 tempo osservato: Coperto Coperto 26 94 1012 vento: Nord N 0
31 Agosto 2026 01:30 tempo osservato: Coperto Coperto 27 88 1013 vento: Nord N 1.8
31 Agosto 2026 01:00 tempo osservato: Sereno Sereno 27 88 1013 vento: Nord N 0
31 Agosto 2026 00:30 tempo osservato: Sereno Sereno 27 88 1013 vento: Nord N 5.5
31 Agosto 2026 00:00 tempo osservato: Sereno Sereno 27 88 1013 vento: Nord N 5.5
30 Agosto 2026 23:30 tempo osservato: Sereno Sereno 27 88 1013 vento: Nord N 5.5
30 Agosto 2026 23:00 tempo osservato: Sereno Sereno 27 88 1013 vento: Nord N 1.8
30 Agosto 2026 22:30 tempo osservato: Sereno Sereno 27 88 1013 vento: Nord N 1.8
30 Agosto 2026 22:00 tempo osservato: Sereno Sereno 28 83 1013 vento: Nord N 3.7
30 Agosto 2026 21:30 tempo osservato: Sereno Sereno 28 83 1012 vento: Nord E 9.3
30 Agosto 2026 21:00 tempo osservato: Sereno Sereno 28 83 1012 vento: Nord E 9.3
30 Agosto 2026 20:30 tempo osservato: Sereno Sereno 28 83 1012 vento: Nord N 3.7
30 Agosto 2026 20:00 tempo osservato: Sereno Sereno 28 83 1011 vento: Nord N 5.5
30 Agosto 2026 19:30 tempo osservato: Sereno Sereno 28 83 1011 vento: Nord N 5.5
30 Agosto 2026 19:00 tempo osservato: Sereno Sereno 28 78 1011 vento: Nord E 11.1
30 Agosto 2026 18:30 tempo osservato: Sereno Sereno 29 74 1011 vento: Nord E 11.1
30 Agosto 2026 18:00 tempo osservato: Sereno Sereno 29 74 1011 vento: Nord E 18.5
30 Agosto 2026 17:30 tempo osservato: Sereno Sereno 30 74 1011 vento: Nord E 18.5
30 Agosto 2026 17:00 tempo osservato: Sereno Sereno 30 70 1011 vento: Nord E/NE 18.5
30 Agosto 2026 16:30 tempo osservato: Sereno Sereno 31 66 1011 vento: Nord E 14.8
30 Agosto 2026 16:00 tempo osservato: Sereno Sereno 31 66 1011 vento: Nord E/NE 18.5
30 Agosto 2026 15:30 tempo osservato: Sereno Sereno 31 66 1011 vento: Nord E 18.5
30 Agosto 2026 15:00 tempo osservato: Molto Nuvoloso Molto Nuvoloso 32 62 1011 vento: Nord E/NE 18.5
30 Agosto 2026 14:30 tempo osservato: Poco Nuvoloso Poco Nuvoloso 33 62 1011 vento: Nord E/NE 11.1
30 Agosto 2026 14:00 tempo osservato: Molto Nuvoloso Molto Nuvoloso 32 62 1011 vento: Nord E/SE 9.3
30 Agosto 2026 13:30 tempo osservato: Molto Nuvoloso Molto Nuvoloso 32 62 1012 vento: Nord N 7.4
30 Agosto 2026 13:00 tempo osservato: Molto Nuvoloso Molto Nuvoloso 32 66 1012 vento: Nord E 13
30 Agosto 2026 12:30 tempo osservato: Coperto Coperto 31 66 1013 vento: Nord E 14.8
30 Agosto 2026 12:00 tempo osservato: Coperto Coperto 31 66 1013 vento: Nord E 11.1
30 Agosto 2026 11:30 tempo osservato: Molto Nuvoloso Molto Nuvoloso 31 66 1013 vento: Nord E 13
30 Agosto 2026 11:00 tempo osservato: Coperto Coperto 30 74 1013 vento: Nord E/SE 11.1
30 Agosto 2026 10:30 tempo osservato: Molto Nuvoloso Molto Nuvoloso 30 70 1013 vento: Nord SE 13
30 Agosto 2026 10:00 tempo osservato: Molto Nuvoloso Molto Nuvoloso 29 74 1013 vento: Nord SE 11.1
30 Agosto 2026 09:30 tempo osservato: Molto Nuvoloso Molto Nuvoloso 29 79 1013 vento: Nord S/SE 7.4
30 Agosto 2026 09:00 tempo osservato: Sereno Sereno 27 88 1013 vento: Nord N 3.7
30 Agosto 2026 08:30 tempo osservato: Sereno Sereno 26 88 1013 vento: Nord N 3.7
30 Agosto 2026 08:00 tempo osservato: Sereno Sereno 25 94 1012 vento: Nord N 3.7
30 Agosto 2026 07:30 tempo osservato: Sereno Sereno 24 100 1012 vento: Nord N 0
30 Agosto 2026 07:00 tempo osservato: Sereno Sereno 23 100 1012 vento: Nord N 0
30 Agosto 2026 06:30 tempo osservato: Sereno Sereno 22 100 1011 vento: Nord N 1.8
30 Agosto 2026 06:00 tempo osservato: Sereno Sereno 23 94 1011 vento: Nord N 3.7
30 Agosto 2026 05:30 tempo osservato: Sereno Sereno 23 94 1011 vento: Nord N 1.8
30 Agosto 2026 05:00 tempo osservato: Sereno Sereno 23 100 1011 vento: Nord N 0
30 Agosto 2026 04:30 tempo osservato: Sereno Sereno 23 100 1011 vento: Nord N 0
30 Agosto 2026 04:00 tempo osservato: Sereno Sereno 23 100 1011 vento: Nord N 0
30 Agosto 2026 03:30 tempo osservato: Sereno Sereno 23 100 1011 vento: Nord N 3.7
30 Agosto 2026 03:00 tempo osservato: Sereno Sereno 23 100 1011 vento: Nord N 3.7